K0VXP-1 Weather Reports


Display with metric or nautical units.
time (UTC)temp
F
wind
direction
speed
MPH
gust
MPH
rain 1hr
in
rain 24hr
in
rain mn
in
humidity
%
barometer
mb
20260904053036 62 167 2.0 4.0 0.00 0.00 0.00 37 1024.3
20260904051537 61 165 1.0 5.0 0.00 0.00 0.00 38 1024.3
20260904050040 61 180 2.0 4.0 0.00 0.00 0.00 37 1024.3
20260904044545 61 205 2.0 4.0 0.00 0.00 0.00 38 1024.4
20260904043042 61 0 0.0 3.0 0.00 0.00 0.00 37 1024.4
20260904041539 63 0 1.0 2.0 0.00 0.00 0.00 35 1024.5
20260904040035 64 128 3.0 6.0 0.00 0.00 0.00 34 1024.3
20260904034533 65 196 3.0 8.0 0.00 0.00 0.00 33 1024.3
20260904033037 63 160 2.0 6.0 0.00 0.00 0.00 36 1024.2
20260904031541 63 172 0.0 3.0 0.00 0.00 0.00 37 1023.9
20260904030034 63 136 1.0 3.0 0.00 0.00 0.00 38 1023.8
20260904024539 64 0 0.0 6.0 0.00 0.00 0.00 37 1023.6
20260904023036 65 215 7.0 11.0 0.00 0.00 0.00 36 1022.9
20260904021534 66 234 7.0 11.0 0.00 0.00 0.00 35 1022.8
20260904020044 66 219 6.0 10.0 0.00 0.00 0.00 35 1022.6
20260904014538 69 213 6.0 10.0 0.00 0.00 0.00 33 1022.5
20260904013037 72 222 9.0 13.0 0.00 0.00 0.00 30 1022.4
20260904011535 74 236 10.0 16.0 0.00 0.00 0.00 29 1022.5
20260904010039 76 208 10.0 17.0 0.00 0.00 0.00 27 1022.5
20260904004537 76 219 11.0 19.0 0.00 0.00 0.00 26 1022.5
20260904003036 78 216 11.0 16.0 0.00 0.00 0.00 25 1022.7
20260904001533 78 237 12.0 18.0 0.00 0.00 0.00 24 1022.6
20260904000034 79 224 11.0 16.0 0.00 0.00 0.00 24 1022.7
20260903234537 79 180 9.0 19.0 0.00 0.00 0.00 24 1022.8
20260903233037 79 223 11.0 18.0 0.00 0.00 0.00 23 1022.8
20260903231541 79 218 11.0 18.0 0.00 0.00 0.00 24 1022.9
20260903230038 79 214 16.0 31.0 0.00 0.00 0.00 23 1022.9
20260903224536 79 198 14.0 22.0 0.00 0.00 0.00 23 1023.0
20260903223042 79 217 15.0 24.0 0.00 0.00 0.00 22 1022.9
20260903221539 79 218 11.0 25.0 0.00 0.00 0.00 23 1023.1
20260903220057 0 224 22.0 22.0 0.00 0.00 0.00 1022.9
20260903214535 0 0.0 0.0 0.00 0.00 0.00 1023.1
20260903213035 79 12.0 15.0 0.00 0.00 0.00 24 1023.4
20260903211538 0 0.0 0.0 0.00 0.00 0.00 1023.5
20260903210038 0 0.0 0.0 0.00 0.00 0.00 1023.8
20260903204534 0 0.0 0.0 0.00 0.01 0.00 1023.9
20260903203035 0 0.0 0.0 0.00 0.01 0.00 1024.1
20260903201535 0 0.0 0.0 0.00 0.01 0.00 1024.3
20260903200045 0 0.0 0.0 0.00 0.01 0.00 1024.3
20260903194544 76 11.0 19.0 0.00 0.01 0.00 29 1024.4
20260903193038 75 185 14.0 23.0 0.00 0.01 0.00 29 1024.6
20260903191550 75 196 10.0 25.0 0.00 0.01 0.00 30 1024.9
20260903190038 74 190 13.0 26.0 0.00 0.01 0.00 30 1024.7
20260903184540 74 202 12.0 26.0 0.00 0.01 0.00 31 1025.0
20260903183059 74 175 13.0 24.0 0.00 0.01 0.00 31 1025.2
20260903181535 72 189 15.0 25.0 0.00 0.01 0.00 32 1025.4
20260903180037 72 220 12.0 25.0 0.00 0.01 0.00 33 1025.6
20260903174536 72 167 13.0 25.0 0.00 0.01 0.00 34 1025.8
20260903173037 0 0.0 0.0 0.00 0.01 0.00 1025.7
20260903171537 0 0.0 0.0 0.00 0.01 0.00 1025.6
20260903170037 0 0.0 0.0 0.00 0.01 0.00 1025.9
20260903164538 0 0.0 0.0 0.00 0.01 0.00 1026.0
20260903163034 0 0.0 0.0 0.00 0.01 0.00 1025.8
20260903161556 0 0.0 0.0 0.00 0.01 0.00 1025.7
20260903160036 0 0.0 0.0 0.00 0.01 0.00 1025.8
20260903154534 0 0.0 0.0 0.00 0.01 0.00 1025.8
20260903153036 0 0.0 0.0 0.00 0.01 0.00 1025.9
20260903151541 0 0.0 0.0 0.00 0.01 0.00 1025.9
20260903150039 0 0.0 0.0 0.00 0.01 0.00 1025.9
20260903144537 65 6.0 10.0 0.00 0.01 0.00 53 1025.9
20260903143041 64 178 4.0 9.0 0.00 0.01 0.00 55 1026.0
20260903141538 62 215 5.0 8.0 0.00 0.01 0.00 57 1025.9
20260903140040 59 178 2.0 10.0 0.00 0.01 0.00 63 1025.8
20260903134543 56 182 3.0 5.0 0.00 0.01 0.00 67 1025.7
20260903133047 55 189 1.0 4.0 0.00 0.01 0.00 65 1025.5
20260903131540 56 259 1.0 4.0 0.00 0.01 0.00 65 1025.3
20260903130036 56 180 2.0 7.0 0.00 0.01 0.00 64 1025.0
20260903124553 56 171 4.0 9.0 0.00 0.01 0.00 64 1024.9
20260903123039 56 147 3.0 8.0 0.00 0.01 0.00 65 1024.7
20260903121545 55 144 3.0 7.0 0.00 0.01 0.00 65 1024.5
20260903120037 55 134 3.0 5.0 0.00 0.01 0.00 65 1024.5
20260903114535 55 136 4.0 9.0 0.00 0.01 0.00 65 1024.4
20260903113036 55 153 5.0 9.0 0.00 0.01 0.00 65 1024.3
20260903111535 55 130 5.0 10.0 0.00 0.01 0.00 65 1024.5
20260903110035 55 113 6.0 9.0 0.00 0.01 0.00 65 1024.4
20260903104538 54 138 5.0 10.0 0.00 0.01 0.00 66 1024.4
20260903103035 53 148 6.0 13.0 0.00 0.01 0.00 71 1024.4
20260903101538 51 0 0.0 5.0 0.00 0.01 0.00 71 1024.4
20260903100036 51 192 2.0 5.0 0.00 0.01 0.00 72 1024.4
20260903094534 51 179 0.0 4.0 0.00 0.01 0.00 72 1024.4
20260903093038 52 267 1.0 5.0 0.00 0.01 0.00 72 1024.3
20260903091552 51 150 0.0 3.0 0.00 0.01 0.00 73 1024.2
20260903090035 51 0 0.0 4.0 0.00 0.01 0.00 73 1024.3
20260903084537 0 0.0 0.0 0.00 0.01 0.00 1024.3
20260903083035 0 0.0 0.0 0.00 0.01 0.00 1024.3
20260903081534 0 0.0 0.0 0.00 0.01 0.00 1024.4
20260903080034 0 0.0 0.0 0.00 0.01 0.00 1024.4
20260903074536 0 0.0 0.0 0.00 0.01 0.00 1024.6
20260903073043 0 0.0 0.0 0.00 0.01 0.00 1024.7
20260903071534 0 0.0 0.0 0.00 0.01 0.00 1024.7
20260903070033 0 0.0 0.0 0.00 0.01 0.00 1025.0
20260903064534 0 0.0 0.0 0.00 0.01 0.00 1024.6
20260903063035 0 3.0 0.0 0.00 0.01 0.00 1024.5
20260903061535 55 42 1.0 4.0 0.00 0.01 0.00 72 1024.9
20260903060037 0 0.0 0.0 0.00 0.01 0.00 1025.2
20260903054534 0 0.0 0.0 0.00 0.01 0.01 1025.0